QPF
0.00 0.00 0.00 0.00 0.00 0.00 0.00 0.00 0.00 0.00 0.00 0.00 0.00 0.00 0.00 0.00 0.00 0.00 0.00 0.00 0.00 0.00 0.00 0.00 0.00 0.00 0.00 0.00 0.00 0.00 0.00 0.00 0.00 0.00 0.00 0.00 0.00 0.00 0.00 0.00 0.00 0.00 0.00
0.00 0.00 0.00 0.00 0.00 0.00 0.00 0.00 0.00 0.00 0.00 0.00 0.00 0.00 0.00 0.00 0.00 0.00 0.00 0.00 0.00 0.00 0.00 0.00 0.00 0.00 0.00 0.00 0.00 0.00 0.00 0.00 0.00 0.00 0.00 0.00 0.00 0.00 0.00 0.00 0.00 0.00 0.00
0.00 0.00 0.00 0.00 0.00 0.00 0.00 0.00 0.00 0.00 0.00 0.00 0.00 0.00 0.00 0.00 0.00 0.00 0.00 0.00 0.00 0.00 0.00 0.00 0.00 0.00 0.00 0.00 0.00 0.00 0.00 0.00 0.00 0.00 0.00 0.00 0.00 0.00 0.00 0.00 0.00 0.00 0.00
0.00 0.00 0.00 0.00 0.00 0.00 0.00 0.00 0.00 0.00 0.00 0.00 0.00 0.00 0.00 0.00 0.00 0.00 0.00 0.00 0.00 0.00 0.00 0.00 0.00 0.00 0.00 0.00 0.00 0.00 0.00 0.00 0.00 0.00 0.00 0.00 0.00 0.00 0.00 0.00 0.00 0.00 0.00
0.00 0.00 0.00 0.00 0.00 0.00 0.00 0.00 0.00 0.00 0.00 0.00 0.00 0.00 0.00 0.00 0.00 0.00 0.00 0.00 0.00 0.00 0.00 0.00 0.00 0.00 0.00 0.00 0.00 0.00 0.00 0.00 0.00 0.00 0.00 0.00 0.00 0.00 0.00 0.00 0.00 0.00 0.00
0.00 0.00 0.00 0.00 0.00 0.00 0.00 0.00 0.00 0.00 0.00 0.00 0.00 0.00 0.00 0.00 0.00 0.00 0.00 0.00 0.00 0.00 0.00 0.00 0.00 0.00 0.00 0.00 0.00 0.00 0.00 0.00 0.00 0.00 0.00 0.00 0.00 0.00 0.00 0.00 0.00 0.00 0.00
0.00 0.00 0.00 0.00 0.00 0.00 0.00 0.00 0.00 0.00 0.00 0.00 0.00 0.00 0.00 0.00 0.00 0.00 0.00 0.00 0.00 0.00 0.00 0.00 0.00 0.00 0.00 0.00 0.00 0.00 0.00 0.00 0.00 0.00 0.00 0.00 0.00 0.00 0.00 0.00 0.00 0.00 0.00
0.00 0.00 0.00 0.00 0.00 0.00 0.00 0.00 0.00 0.00 0.00 0.00 0.00 0.00 0.00 0.00 0.00 0.00 0.00 0.00 0.00 0.00 0.00 0.00 0.00 0.00 0.00 0.00 0.00 0.00 0.00 0.00 0.00 0.00 0.00 0.00 0.00 0.00 0.00 0.00 0.00 0.00 0.00
0.00 0.00 0.00 0.00 0.00 0.00 0.00 0.00 0.00 0.00 0.00 0.00 0.00 0.00 0.00 0.00 0.00 0.00 0.00 0.00 0.00 0.00 0.00 0.00 0.00 0.00 0.00 0.00 0.00 0.00 0.00 0.00 0.00 0.00 0.00 0.00 0.00 0.00 0.00 0.00 0.00 0.00 0.00
0.00 0.00 0.00 0.00 0.00 0.00 0.00 0.00 0.00 0.00 0.00 0.00 0.00 0.00 0.00 0.00 0.00 0.00 0.00 0.00 0.00 0.00 0.00 0.00 0.00 0.00 0.00 0.00 0.00 0.00 0.00 0.00 0.00 0.00 0.00 0.00 0.00 0.00 0.00 0.00 0.00 0.00 0.00
0.00 0.00 0.00 0.00 0.00 0.00 0.00 0.00 0.00 0.00 0.00 0.00 0.00 0.00 0.00 0.00 0.00 0.00 0.00 0.00 0.00 0.00 0.00 0.00 0.00 0.00 0.00 0.00 0.00 0.00 0.00 0.00 0.00 0.00 0.00 0.00 0.00 0.00 0.00 0.00 0.00 0.00 0.00
0.00 0.00 0.00 0.00 0.00 0.00 0.00 0.00 0.00 0.00 0.00 0.00 0.00 0.00 0.00 0.00 0.00 0.00 0.00 0.00 0.00 0.00 0.00 0.00 0.00 0.00 0.00 0.00 0.00 0.00 0.00 0.00 0.00 0.00 0.00 0.00 0.00 0.00 0.00 0.00 0.00 0.00 0.00
0.00 0.00 0.00 0.00 0.00 0.00 0.00 0.00 0.00 0.00 0.00 0.00 0.00 0.00 0.00 0.00 0.00 0.00 0.00 0.00 0.00 0.00 0.00 0.00 0.00 0.00 0.00 0.00 0.00 0.00 0.00 0.00 0.00 0.00 0.00 0.00 0.00 0.00 0.00 0.00 0.00 0.00 0.00
0.00 0.00 0.00 0.00 0.00 0.00 0.00 0.00 0.00 0.00 0.00 0.00 0.00 0.00 0.00 0.00 0.00 0.00 0.00 0.00 0.00 0.00 0.00 0.00 0.00 0.00 0.00 0.00 0.00 0.00 0.00 0.00 0.00 0.00 0.00 0.00 0.00 0.00 0.00 0.00 0.00 0.00 0.00
0.00 0.00 0.00 0.00 0.00 0.00 0.00 0.00 0.00 0.00 0.00 0.00 0.00 0.00 0.00 0.00 0.00 0.00 0.00 0.00 0.00 0.00 0.00 0.00 0.00 0.00 0.00 0.00 0.00 0.00 0.00 0.00 0.00 0.00 0.00 0.00 0.00 0.00 0.00 0.00 0.00 0.00 0.00
0.00 0.00 0.00 0.00 0.00 0.00 0.00 0.00 0.00 0.00 0.00 0.00 0.00 0.00 0.00 0.00 0.00 0.00 0.00 0.00 0.00 0.00 0.00 0.00 0.00 0.00 0.00 0.00 0.00 0.00 0.00 0.00 0.00 0.00 0.00 0.00 0.00 0.00 0.00 0.00 0.00 0.00 0.00
0.00 0.00 0.00 0.00 0.00 0.00 0.00 0.00 0.00 0.00 0.00 0.00 0.00 0.00 0.00 0.00 0.00 0.00 0.00 0.00 0.00 0.00 0.00 0.00 0.00 0.00 0.00 0.00 0.00 0.00 0.00 0.00 0.00 0.00 0.00 0.00 0.00 0.00 0.00 0.00 0.00 0.00 0.00
0.00 0.00 0.00 0.00 0.00 0.00 0.00 0.00 0.00 0.00 0.00 0.00 0.00 0.00 0.00 0.00 0.00 0.00 0.00 0.00 0.00 0.00 0.00 0.00 0.00 0.00 0.00 0.00 0.00 0.00 0.00 0.00 0.00 0.00 0.00 0.00 0.00 0.00 0.00 0.00 0.00 0.00 0.00
0.00 0.00 0.00 0.00 0.00 0.00 0.00 0.00 0.00 0.00 0.00 0.00 0.00 0.00 0.00 0.00 0.00 0.00 0.00 0.00 0.00 0.00 0.00 0.00 0.00 0.00 0.00 0.00 0.00 0.00 0.00 0.00 0.00 0.00 0.00 0.00 0.00 0.00 0.00 0.00 0.00 0.00 0.00
0.00 0.00 0.00 0.00 0.00 0.00 0.00 0.00 0.00 0.00 0.00 0.00 0.00 0.00 0.00 0.00 0.00 0.00 0.00 0.00 0.00 0.00 0.00 0.00 0.00 0.00 0.00 0.00 0.00 0.00 0.00 0.00 0.00 0.00 0.00 0.00 0.00 0.00 0.00 0.00 0.00 0.00 0.00
0.00 0.00 0.00 0.00 0.00 0.00 0.00 0.00 0.00 0.00 0.00 0.00 0.00 0.00 0.00 0.00 0.00 0.00 0.00 0.00 0.00 0.00 0.00 0.00 0.00 0.00 0.00 0.00 0.00 0.00 0.00 0.00 0.00 0.00 0.00 0.00 0.00 0.00 0.00 0.00 0.00 0.00 0.00
0.00 0.00 0.00 0.00 0.00 0.00 0.00 0.00 0.00 0.00 0.00 0.00 0.00 0.00 0.00 0.00 0.00 0.00 0.00 0.00 0.00 0.00 0.00 0.00 0.00 0.00 0.00 0.00 0.00 0.00 0.00 0.00 0.00 0.00 0.00 0.00 0.00 0.00 0.00 0.00 0.00 0.00 0.00
0.00 0.00 0.00 0.00 0.00 0.00 0.00 0.00 0.00 0.00 0.00 0.00 0.00 0.00 0.00 0.00 0.00 0.00 0.00 0.00 0.00 0.00 0.00 0.00 0.00 0.00 0.00 0.00 0.00 0.00 0.00 0.00 0.00 0.00 0.00 0.00 0.00 0.00 0.00 0.00 0.00 0.00 0.00
0.00 0.00 0.00 0.00 0.00 0.00 0.00 0.00 0.00 0.00 0.00 0.00 0.00 0.00 0.00 0.00 0.00 0.00 0.00 0.00 0.00 0.00 0.00 0.00 0.00 0.00 0.00 0.00 0.00 0.00 0.00 0.00 0.00 0.00 0.00 0.00 0.00 0.00 0.00 0.00 0.00 0.00 0.00
0.00 0.00 0.00 0.00 0.00 0.00 0.00 0.00 0.00 0.00 0.00 0.00 0.00 0.00 0.00 0.00 0.00 0.00 0.00 0.00 0.00 0.00 0.00 0.00 0.00 0.00 0.00 0.00 0.00 0.00 0.00 0.00 0.00 0.00 0.00 0.00 0.00 0.00 0.00 0.00 0.00 0.00 0.00
0.00 0.00 0.00 0.00 0.00 0.00 0.00 0.00 0.00 0.00 0.00 0.00 0.00 0.00 0.00 0.00 0.00 0.00 0.00 0.00 0.00 0.00 0.00 0.00 0.00 0.00 0.00 0.00 0.00 0.00 0.00 0.00 0.00 0.00 0.00 0.00 0.00 0.00 0.00 0.00 0.00 0.00 0.00
MSLP
1017.66 1018.39 1019.05 1019.48 1019.82 1020.43 1021.16 1021.72 1022.23 1022.64 1022.89 1023.23 1023.64 1024.33 1024.64 1024.91 1025.09 1025.28 1025.74 1026.02 1026.34 1026.77 1026.89 1027.14 1027.35 1027.33 1027.42 1027.31 1027.19 1027.01 1026.88 1026.62 1026.48 1026.32 1026.63 1026.75 1026.42 1026.14 1025.31 1024.51 1023.81 1023.46 1023.31
1017.64 1018.48 1019.11 1019.55 1020.05 1020.73 1021.41 1022.06 1022.51 1022.96 1023.12 1023.55 1023.91 1024.84 1025.05 1025.36 1025.60 1026.04 1026.30 1026.72 1027.24 1027.49 1027.74 1027.86 1028.09 1028.19 1028.17 1027.94 1027.71 1027.62 1027.38 1027.00 1026.89 1027.30 1027.62 1027.56 1027.09 1026.68 1026.03 1025.22 1024.48 1023.86 1023.70
1017.53 1018.47 1019.36 1020.04 1020.49 1021.11 1021.61 1022.21 1022.73 1023.24 1023.71 1024.20 1024.45 1025.18 1025.66 1025.82 1026.25 1026.45 1026.72 1027.36 1027.86 1027.93 1028.34 1028.64 1028.92 1028.93 1028.69 1028.36 1028.25 1028.05 1027.92 1027.67 1027.59 1028.05 1028.44 1028.19 1027.76 1027.45 1026.55 1025.77 1025.12 1024.57 1024.07
1017.49 1018.76 1019.46 1020.30 1021.05 1021.54 1021.99 1022.36 1022.96 1023.56 1024.14 1024.72 1025.17 1025.71 1026.21 1026.23 1026.33 1026.63 1027.19 1027.78 1027.91 1028.34 1029.14 1029.51 1029.68 1029.38 1028.81 1028.64 1028.55 1028.63 1028.54 1028.41 1028.46 1028.76 1029.01 1029.15 1028.87 1028.32 1027.68 1027.13 1026.06 1025.56 1025.19
1016.40 1018.29 1019.36 1020.32 1021.01 1021.67 1022.41 1022.52 1023.10 1023.74 1024.41 1025.02 1025.44 1025.93 1026.31 1026.23 1026.29 1026.83 1027.32 1027.73 1027.81 1028.57 1029.49 1029.57 1029.32 1028.62 1028.35 1028.58 1028.73 1028.87 1028.91 1029.27 1029.20 1029.35 1029.59 1029.68 1029.49 1029.04 1028.49 1028.04 1027.11 1025.95 1025.98
1016.54 1017.86 1019.09 1020.19 1021.00 1021.39 1022.11 1022.77 1023.19 1023.78 1024.47 1024.94 1025.51 1025.77 1026.09 1026.00 1026.18 1026.50 1027.03 1027.47 1027.83 1028.56 1029.30 1029.43 1029.24 1029.17 1028.82 1028.60 1028.57 1028.61 1029.14 1029.29 1029.43 1029.52 1029.78 1030.16 1029.76 1029.60 1028.89 1028.42 1027.72 1026.93 1026.74
1016.49 1017.70 1018.77 1019.79 1020.63 1021.16 1021.70 1022.47 1023.00 1023.63 1024.19 1024.69 1025.14 1025.51 1025.87 1026.08 1026.38 1026.49 1026.48 1027.05 1027.78 1028.68 1029.27 1029.45 1029.37 1029.45 1029.41 1029.17 1028.70 1028.87 1028.92 1028.98 1029.22 1029.38 1029.53 1029.64 1029.48 1029.22 1028.86 1028.38 1028.04 1027.60 1027.70
1015.88 1017.34 1018.33 1019.22 1020.06 1020.78 1021.27 1021.99 1022.70 1023.32 1023.77 1024.20 1024.75 1025.20 1025.75 1026.21 1026.47 1026.58 1026.67 1027.27 1028.19 1028.98 1029.42 1029.82 1029.95 1029.89 1029.31 1029.14 1029.33 1029.53 1029.56 1029.41 1029.25 1029.14 1029.31 1029.15 1028.91 1028.84 1028.87 1028.62 1028.18 1027.68 1027.61
1015.38 1016.57 1017.66 1018.55 1019.47 1020.15 1020.84 1021.43 1022.17 1022.84 1023.28 1023.78 1024.51 1025.16 1025.69 1026.31 1026.48 1026.62 1026.92 1027.49 1028.42 1029.18 1029.66 1030.08 1030.26 1030.17 1029.65 1029.48 1029.68 1029.82 1029.94 1029.85 1029.41 1029.19 1028.96 1028.89 1028.95 1028.79 1028.78 1028.73 1028.28 1027.93 1027.84
1014.83 1015.86 1016.92 1017.99 1018.91 1019.70 1020.29 1021.22 1021.66 1022.29 1022.79 1023.58 1024.60 1025.10 1025.67 1026.32 1026.47 1026.58 1026.86 1027.74 1028.53 1029.37 1029.89 1030.06 1030.07 1030.22 1030.07 1030.10 1030.26 1030.34 1030.41 1030.54 1030.21 1029.87 1029.72 1029.73 1029.71 1029.52 1029.25 1029.18 1029.12 1028.83 1028.76
1014.37 1015.56 1016.88 1017.85 1018.89 1019.72 1020.67 1020.78 1021.37 1022.29 1023.14 1023.94 1024.81 1025.56 1025.97 1026.53 1026.78 1026.62 1026.67 1027.42 1028.24 1029.30 1030.02 1030.55 1030.68 1030.31 1030.23 1030.31 1030.39 1030.46 1030.49 1031.22 1031.08 1030.82 1030.76 1030.81 1030.45 1030.21 1029.90 1029.59 1029.62 1029.28 1029.04
1014.41 1015.48 1016.71 1017.64 1018.76 1019.48 1019.90 1020.66 1021.54 1022.48 1023.48 1024.43 1025.22 1026.09 1026.50 1027.06 1026.91 1026.96 1027.12 1027.33 1027.73 1028.90 1030.17 1030.96 1030.90 1030.20 1030.30 1030.34 1030.73 1030.16 1030.31 1031.07 1031.41 1031.42 1031.47 1031.49 1031.13 1030.83 1030.44 1029.87 1029.45 1028.98 1028.74
1014.34 1015.45 1016.55 1017.53 1018.08 1018.99 1019.83 1020.82 1021.83 1022.49 1023.43 1024.44 1025.10 1025.89 1026.61 1027.13 1027.33 1027.20 1027.46 1027.69 1028.16 1029.15 1029.94 1030.12 1029.87 1030.02 1030.03 1030.34 1030.33 1030.28 1031.02 1031.79 1031.91 1032.39 1032.66 1032.28 1031.90 1031.49 1030.56 1030.17 1029.43 1028.90 1028.56
1014.39 1015.37 1016.33 1017.10 1018.06 1018.84 1019.80 1020.83 1021.62 1022.44 1023.23 1023.95 1024.72 1025.49 1026.20 1026.89 1027.32 1027.80 1028.00 1028.10 1028.28 1029.05 1029.35 1029.87 1030.25 1030.35 1030.59 1030.96 1030.79 1031.00 1031.33 1031.94 1032.03 1032.33 1032.31 1032.22 1032.06 1031.50 1031.22 1031.07 1030.32 1029.83 1029.30
1014.57 1015.46 1016.39 1017.31 1018.08 1018.84 1019.69 1020.58 1021.34 1022.09 1022.51 1023.29 1023.93 1024.65 1025.50 1026.26 1026.74 1027.14 1027.62 1028.15 1028.43 1028.92 1029.65 1030.14 1030.61 1030.47 1030.77 1030.82 1031.01 1031.38 1031.90 1031.77 1031.92 1032.15 1032.23 1032.36 1032.25 1031.89 1031.64 1031.21 1030.80 1030.43 1030.43
1014.51 1015.28 1016.20 1017.20 1017.97 1018.84 1019.73 1020.78 1021.19 1021.56 1022.20 1022.50 1023.02 1023.81 1024.50 1024.88 1025.76 1026.39 1026.81 1027.21 1027.67 1028.19 1029.22 1030.05 1030.36 1030.69 1030.92 1031.25 1031.63 1031.54 1031.76 1031.76 1031.82 1032.00 1032.19 1032.31 1032.35 1032.16 1031.92 1031.56 1031.18 1031.01 1030.89
1014.28 1015.23 1016.20 1017.11 1017.95 1018.88 1019.79 1020.63 1021.63 1022.25 1022.17 1022.16 1022.52 1023.07 1023.55 1024.27 1025.01 1025.65 1026.13 1026.54 1027.19 1028.01 1028.79 1029.43 1029.82 1030.26 1030.53 1030.41 1030.78 1031.17 1031.77 1031.58 1031.58 1031.94 1032.15 1032.26 1032.29 1032.15 1032.07 1031.88 1031.62 1031.36 1031.20
1014.40 1015.18 1016.07 1016.94 1017.79 1018.73 1019.62 1020.44 1021.13 1021.88 1022.54 1022.89 1022.94 1023.13 1023.51 1023.98 1024.62 1025.21 1025.94 1026.69 1027.34 1027.76 1028.24 1028.90 1029.21 1029.49 1029.66 1030.00 1030.47 1030.91 1031.24 1031.40 1031.57 1031.94 1032.19 1032.35 1032.41 1032.34 1032.45 1032.25 1032.00 1031.79 1031.44
1014.34 1015.31 1016.05 1016.87 1017.58 1018.39 1019.29 1020.17 1020.86 1021.61 1022.33 1022.98 1023.41 1023.71 1023.98 1024.16 1024.69 1025.27 1025.84 1026.52 1027.15 1027.63 1027.92 1028.21 1028.52 1028.83 1029.14 1029.64 1030.13 1030.54 1030.90 1031.29 1031.62 1031.95 1032.33 1032.45 1032.54 1032.46 1032.69 1032.37 1032.21 1031.93 1031.64
1014.24 1015.07 1015.86 1016.76 1017.52 1018.20 1018.97 1019.78 1020.59 1021.29 1022.02 1022.68 1023.26 1023.71 1024.21 1024.60 1024.87 1025.31 1025.61 1026.23 1026.67 1027.00 1027.28 1027.55 1027.89 1028.23 1028.72 1029.32 1029.90 1030.39 1030.81 1031.15 1031.51 1031.95 1032.28 1032.48 1032.54 1032.51 1032.58 1032.49 1032.32 1032.21 1031.73
1014.35 1015.21 1015.92 1016.72 1017.37 1017.98 1018.67 1019.38 1020.07 1020.78 1021.47 1022.13 1022.62 1023.12 1023.47 1023.97 1024.55 1024.99 1025.35 1025.71 1025.99 1026.29 1026.56 1026.81 1027.22 1027.74 1028.35 1029.04 1029.64 1030.15 1030.60 1031.12 1031.52 1031.91 1032.18 1032.43 1032.52 1032.61 1032.55 1032.50 1032.37 1032.14 1031.80
1014.41 1015.27 1016.05 1016.73 1017.33 1017.93 1018.50 1019.08 1019.80 1020.41 1020.97 1021.51 1022.07 1022.61 1023.15 1023.71 1024.13 1024.50 1024.82 1025.05 1025.24 1025.61 1025.83 1026.23 1026.98 1027.49 1028.15 1028.74 1029.45 1030.15 1030.63 1031.04 1031.50 1031.97 1032.32 1032.53 1032.65 1032.69 1032.67 1032.64 1032.53 1032.34 1032.16
1014.61 1015.47 1016.21 1016.84 1017.39 1017.98 1018.55 1019.02 1019.45 1019.92 1020.43 1020.89 1021.38 1022.00 1022.76 1023.23 1023.55 1023.87 1024.29 1024.51 1024.81 1025.23 1025.54 1026.07 1026.98 1028.05 1028.58 1028.95 1029.29 1029.80 1030.49 1030.93 1031.35 1031.62 1032.39 1032.72 1032.77 1032.78 1032.75 1032.72 1032.66 1032.66 1032.55
1014.85 1015.52 1016.19 1016.84 1017.40 1017.95 1018.41 1018.84 1019.23 1019.64 1020.06 1020.47 1020.90 1021.36 1021.90 1022.42 1022.95 1023.64 1024.28 1024.77 1025.28 1025.85 1026.32 1026.93 1027.54 1028.13 1028.77 1029.46 1029.79 1030.22 1030.72 1031.10 1031.25 1031.61 1031.83 1032.46 1032.76 1032.92 1032.93 1032.84 1032.72 1032.54 1032.43
1014.96 1015.57 1016.12 1016.69 1017.27 1017.80 1018.27 1018.67 1019.05 1019.42 1019.83 1020.23 1020.66 1021.14 1021.65 1022.34 1023.10 1023.81 1024.47 1025.16 1025.79 1026.43 1027.13 1027.70 1028.29 1028.90 1029.39 1029.83 1030.31 1030.72 1031.03 1031.36 1031.56 1031.76 1031.95 1032.22 1032.70 1032.92 1032.97 1032.90 1032.85 1032.69 1032.46
1014.88 1015.50 1016.03 1016.56 1017.08 1017.56 1018.04 1018.51 1018.91 1019.32 1019.77 1020.16 1020.55 1021.02 1021.81 1022.63 1023.38 1024.07 1024.74 1025.44 1026.25 1026.96 1027.62 1028.19 1028.56 1029.04 1029.58 1030.14 1030.60 1030.96 1031.24 1031.50 1031.80 1031.92 1032.17 1032.40 1032.86 1032.94 1032.89 1033.00 1032.86 1032.69 1032.52
Thickness
5477 5470 5465 5462 5459 5455 5449 5444 5440 5436 5433 5430 5425 5417 5412 5409 5405 5402 5398 5395 5392 5387 5385 5382 5379 5377 5375 5373 5372 5369 5366 5365 5363 5363 5356 5351 5350 5349 5352 5354 5355 5355 5354
5465 5459 5455 5452 5448 5443 5438 5433 5430 5426 5424 5418 5413 5405 5401 5398 5394 5390 5387 5383 5378 5376 5373 5372 5368 5367 5365 5364 5362 5359 5358 5358 5354 5347 5343 5340 5340 5340 5341 5343 5345 5345 5345
5458 5450 5443 5438 5435 5431 5429 5425 5421 5416 5412 5405 5402 5395 5390 5386 5381 5379 5377 5372 5368 5367 5363 5360 5356 5355 5354 5353 5352 5350 5348 5348 5343 5337 5329 5330 5330 5328 5331 5333 5334 5336 5335
5449 5439 5432 5427 5422 5420 5417 5415 5410 5405 5399 5393 5390 5385 5379 5376 5373 5370 5366 5361 5361 5359 5354 5351 5348 5346 5345 5343 5341 5336 5336 5335 5331 5326 5317 5313 5312 5316 5316 5316 5320 5321 5322
5448 5433 5424 5417 5413 5410 5405 5404 5399 5394 5388 5383 5380 5376 5370 5368 5365 5362 5358 5355 5355 5351 5345 5342 5341 5341 5340 5337 5334 5329 5326 5321 5317 5313 5306 5301 5303 5300 5301 5302 5303 5311 5308
5435 5426 5417 5409 5404 5402 5397 5392 5389 5384 5378 5375 5371 5368 5363 5361 5358 5356 5353 5351 5349 5344 5338 5334 5332 5331 5331 5329 5326 5324 5320 5313 5309 5303 5297 5291 5289 5286 5289 5292 5291 5293 5292
5425 5416 5410 5402 5397 5395 5392 5385 5382 5377 5372 5369 5366 5362 5356 5353 5350 5349 5349 5347 5343 5336 5330 5327 5325 5322 5321 5321 5319 5313 5310 5306 5303 5298 5293 5286 5284 5282 5282 5282 5281 5283 5276
5420 5408 5403 5397 5392 5387 5385 5380 5375 5371 5368 5366 5361 5356 5350 5345 5343 5342 5341 5339 5333 5327 5322 5317 5314 5313 5314 5313 5309 5304 5300 5297 5294 5290 5285 5282 5280 5276 5272 5270 5269 5270 5266
5414 5404 5398 5392 5385 5382 5379 5375 5371 5367 5364 5362 5354 5348 5342 5337 5336 5335 5334 5330 5324 5317 5312 5308 5305 5302 5301 5299 5296 5293 5288 5284 5282 5279 5276 5271 5267 5265 5260 5257 5257 5256 5254
5411 5403 5395 5388 5382 5378 5375 5368 5366 5362 5360 5355 5345 5338 5336 5330 5328 5328 5327 5322 5315 5308 5302 5300 5296 5292 5289 5286 5282 5278 5274 5270 5267 5265 5261 5257 5253 5250 5247 5243 5240 5239 5234
5409 5399 5388 5382 5374 5369 5362 5363 5359 5354 5348 5342 5334 5326 5326 5321 5319 5319 5321 5317 5310 5300 5293 5287 5284 5281 5278 5274 5271 5267 5262 5258 5255 5251 5246 5242 5239 5235 5232 5229 5227 5223 5218
5399 5391 5382 5375 5366 5362 5359 5354 5349 5342 5334 5328 5323 5315 5312 5311 5309 5309 5308 5308 5304 5296 5285 5280 5277 5273 5268 5264 5260 5256 5251 5247 5242 5236 5229 5225 5221 5218 5217 5215 5212 5211 5210
5393 5384 5375 5366 5362 5355 5349 5342 5335 5331 5325 5318 5315 5309 5303 5301 5299 5298 5297 5295 5291 5284 5278 5273 5269 5264 5259 5254 5249 5245 5240 5234 5227 5219 5212 5209 5208 5206 5204 5200 5199 5197 5196
5385 5377 5369 5362 5354 5348 5341 5333 5328 5321 5317 5313 5308 5302 5298 5293 5290 5289 5287 5284 5280 5275 5270 5265 5260 5255 5250 5245 5239 5233 5229 5221 5214 5206 5201 5198 5196 5192 5187 5185 5180 5177 5173
5377 5369 5360 5353 5347 5341 5334 5328 5321 5317 5315 5308 5305 5301 5294 5289 5285 5284 5279 5275 5270 5266 5260 5254 5248 5242 5236 5232 5227 5222 5215 5209 5202 5196 5190 5183 5178 5174 5171 5170 5166 5160 5153
5372 5365 5355 5345 5340 5334 5326 5319 5316 5314 5310 5307 5304 5299 5293 5290 5284 5279 5275 5271 5265 5259 5249 5242 5237 5229 5225 5220 5213 5208 5202 5197 5191 5185 5178 5171 5164 5159 5155 5153 5150 5143 5138
5369 5360 5350 5342 5335 5328 5320 5314 5306 5302 5304 5304 5299 5296 5293 5287 5281 5275 5270 5265 5257 5250 5242 5236 5228 5221 5217 5214 5206 5198 5189 5185 5179 5172 5164 5157 5151 5146 5141 5137 5132 5129 5126
5361 5354 5346 5339 5331 5324 5316 5309 5304 5298 5293 5287 5289 5287 5285 5281 5276 5270 5263 5255 5247 5242 5236 5229 5225 5216 5211 5205 5197 5188 5181 5173 5166 5158 5150 5143 5135 5131 5124 5119 5116 5110 5110
5357 5348 5341 5333 5326 5321 5313 5305 5299 5293 5287 5282 5278 5276 5275 5271 5266 5260 5254 5245 5238 5232 5228 5223 5215 5208 5201 5194 5184 5177 5169 5160 5152 5143 5136 5129 5119 5115 5107 5103 5099 5095 5092
5354 5345 5338 5329 5320 5316 5310 5303 5295 5289 5284 5278 5274 5270 5265 5260 5255 5249 5246 5238 5232 5226 5220 5215 5208 5200 5192 5183 5174 5166 5157 5148 5140 5131 5121 5113 5106 5100 5092 5087 5082 5077 5075
5346 5339 5331 5324 5317 5311 5306 5300 5294 5288 5282 5276 5271 5266 5263 5257 5250 5244 5239 5233 5227 5221 5214 5209 5201 5191 5181 5172 5164 5154 5146 5134 5126 5117 5108 5101 5092 5084 5079 5073 5066 5061 5057
5338 5330 5323 5317 5310 5304 5299 5295 5289 5285 5280 5275 5268 5261 5255 5248 5243 5238 5232 5226 5220 5214 5207 5198 5188 5180 5170 5161 5151 5141 5130 5120 5111 5101 5093 5085 5078 5070 5063 5055 5047 5040 5035
5328 5321 5314 5307 5302 5295 5290 5287 5283 5280 5276 5272 5267 5259 5250 5244 5238 5232 5226 5219 5212 5205 5197 5189 5178 5165 5155 5147 5137 5127 5117 5107 5097 5089 5079 5069 5062 5054 5045 5037 5030 5021 5014
5318 5311 5305 5298 5293 5289 5285 5281 5278 5273 5269 5264 5259 5254 5247 5240 5233 5223 5214 5206 5198 5188 5180 5170 5159 5149 5139 5129 5119 5109 5100 5091 5082 5073 5065 5056 5046 5037 5028 5019 5012 5004 4998
5309 5302 5296 5293 5289 5285 5279 5275 5271 5267 5262 5257 5251 5244 5237 5228 5218 5208 5199 5190 5180 5171 5161 5151 5142 5133 5124 5115 5104 5094 5083 5074 5066 5058 5049 5040 5030 5021 5011 5004 4997 4991 4985
5301 5296 5292 5288 5283 5279 5274 5269 5264 5259 5253 5248 5241 5235 5225 5215 5204 5195 5186 5176 5166 5155 5146 5136 5126 5117 5107 5097 5088 5078 5069 5060 5051 5042 5033 5024 5014 5005 4997 4989 4983 4976 4972